Beaufort MCAS, SC

4:59 AM EDT on September 20, 2017 (GMT -0400)
Beaufort Marine Corps Air Station

Weather History for KNBC - May, 2013

Change the Weather History Date:

Monday, May 13, 2013

  Actual Average Record
Temperature  
Mean Temperature 65 °F -  
Max Temperature 75 °F 83 °F 95 °F (1956)
Min Temperature 55 °F 63 °F 50 °F (1960)
Growing Degree Days 15 (Base 50)    
Moisture  
Dew Point 41 °F    
Average Humidity 44    
Maximum Humidity 77    
Minimum Humidity 22    
Precipitation  
Precipitation 0.00 in - - ()
Sea Level Pressure  
Sea Level Pressure 30.10 in    
Wind  
Wind Speed 9 mph (NNW)    
Max Wind Speed 14 mph    
Max Gust Speed 20 mph    
Visibility 10 miles    
Events      
Averages and records for this station are not official NWS values.
T = Trace of Precipitation, MM = Missing Value Source: NWS Daily Summary

Daily Weather History Graph

Daily Weather History Graph

Search for Another Location

Airport or City:

Trip Planner

Search our weather history database for the weather conditions in past years. The results will help you decide how hot, cold, wet, or windy it might be!

Date:

Astronomy

May. 13, 2013 Rise Set
Actual Time 6:25 AM EDT 8:13 PM EDT
Civil Twilight 5:58 AM EDT 8:40 PM EDT
Nautical Twilight 5:26 AM EDT 9:12 PM EDT
Astronomical Twilight 4:52 AM EDT 9:47 PM EDT
Moon 9:11 AM EDT (5/13) 11:21 PM EDT (5/13)
Length of Visible Light 14h 41m
Length of Day
13h 47m
Waxing Crescent, 12% of the Moon is Illuminated
May 13
Waxing Crescent
May 18
First Quarter
May 25
Full
May 31
Last Quarter
Jun 8
New

Hourly Weather History & Observations

Time (EDT) Temp. Dew Point Humidity Pressure Visibility Wind Dir Wind Speed Gust Speed Precip Events Conditions
12:56 AM 68.0 °F 39.9 °F 36% 30.04 in 10.0 mi NW 9.2 mph - N/A   Clear
1:56 AM 64.9 °F 39.0 °F 39% 30.03 in 10.0 mi NW 11.5 mph - N/A   Clear
2:56 AM 63.0 °F 41.0 °F 45% 30.03 in 10.0 mi NNW 8.1 mph - N/A   Clear
3:56 AM 61.0 °F 39.0 °F 44% 30.03 in 10.0 mi NNW 10.4 mph - N/A   Clear
4:56 AM 59.0 °F 39.9 °F 49% 30.04 in 10.0 mi NNW 8.1 mph - N/A   Clear
5:56 AM 57.0 °F 41.0 °F 55% 30.05 in 10.0 mi NNW 10.4 mph - N/A   Clear
6:56 AM 55.9 °F 42.1 °F 60% 30.06 in 10.0 mi North 8.1 mph - N/A   Clear
7:56 AM 57.0 °F 43.0 °F 59% 30.09 in 10.0 mi North 5.8 mph - N/A   Mostly Cloudy
8:56 AM 60.1 °F 43.0 °F 53% 30.12 in 10.0 mi NNE 9.2 mph - N/A   Mostly Cloudy
9:56 AM 64.0 °F 41.0 °F 43% 30.14 in 10.0 mi NNE 12.7 mph - N/A   Mostly Cloudy
10:56 AM 64.0 °F 39.9 °F 41% 30.16 in 10.0 mi NNE 13.8 mph 19.6 mph N/A   Mostly Cloudy
11:56 AM 69.1 °F 39.0 °F 33% 30.14 in 10.0 mi NNE 10.4 mph - N/A   Scattered Clouds
12:56 PM 71.1 °F 39.9 °F 32% 30.14 in 10.0 mi NNW 9.2 mph - N/A   Scattered Clouds
1:56 PM 73.0 °F 39.0 °F 29% 30.13 in 10.0 mi North 8.1 mph - N/A   Scattered Clouds
2:56 PM 73.9 °F 37.9 °F 27% 30.12 in 10.0 mi NNW 9.2 mph - N/A   Clear
4:56 PM 73.9 °F 36.0 °F 25% 30.07 in 10.0 mi NNW 10.4 mph - N/A   Clear
5:56 PM 75.0 °F 34.0 °F 22% 30.06 in 10.0 mi NNW 10.4 mph - N/A   Clear
6:56 PM 73.0 °F 35.1 °F 25% 30.06 in 10.0 mi NW 8.1 mph - N/A   Clear
7:56 PM 69.1 °F 36.0 °F 30% 30.09 in 10.0 mi NW 5.8 mph - N/A   Clear
8:56 PM 64.9 °F 45.0 °F 48% 30.12 in 10.0 mi NW 3.5 mph - N/A   Clear
9:56 PM 60.1 °F 45.0 °F 57% 30.14 in 10.0 mi Calm Calm - N/A   Clear
10:56 PM 55.0 °F 48.0 °F 77% 30.16 in 10.0 mi North 3.5 mph - N/A   Clear
11:56 PM 57.0 °F 48.9 °F 74% 30.17 in 10.0 mi Calm Calm - N/A   Clear